STARLINK-36655

Last updated on Sun Mar 15 2026 00:02:07 GMT+0000 (Coordinated Universal Time)

1 67834U 26033P 26073.58335648 -.01946607 00000+0 -19208-1 0 9997 2 67834 42.9988 241.6154 0001262 273.0867 213.5992 15.68126396 5459

Satellite not in orbit